Champaign, IL

7:30 AM CDT on May 27, 2017 (GMT -0500)
Univ Of Illinois-Willard

Weather History for KCMI - November, 2012

Change the Weather History Date:

Tuesday, November 27, 2012

  Actual Average Record
Temperature  
Mean Temperature 28 °F 36 °F  
Max Temperature 38 °F 45 °F 64 °F (1998)
Min Temperature 18 °F 27 °F 11 °F (2014)
Degree Days  
Heating Degree Days 37 29  
Month to date heating degree days 633 613  
Since 1 July heating degree days 1119 1074  
Cooling Degree Days 0 0  
Month to date cooling degree days 0 0  
Year to date cooling degree days 1290 944  
Moisture  
Dew Point 18 °F    
Average Humidity 64    
Maximum Humidity 88    
Minimum Humidity 40    
Precipitation  
Precipitation 0.00 in 0.12 in 1.17 in (2015)
Month to date precipitation 1.10 3.15  
Year to date precipitation 26.53 36.85  
Sea Level Pressure  
Sea Level Pressure 30.37 in    
Wind  
Wind Speed 7 mph (WNW)    
Max Wind Speed 10 mph    
Max Gust Speed 23 mph    
Visibility 10 miles    
Events      
T = Trace of Precipitation, MM = Missing Value Source: NWS Daily Summary

Daily Weather History Graph

Daily Weather History Graph

Search for Another Location

Airport or City:

Trip Planner

Search our weather history database for the weather conditions in past years. The results will help you decide how hot, cold, wet, or windy it might be!

Date:

Astronomy

Nov. 27, 2012 Rise Set
Actual Time 6:52 AM CST 4:29 PM CST
Civil Twilight 6:22 AM CST 4:59 PM CST
Nautical Twilight 5:48 AM CST 5:32 PM CST
Astronomical Twilight 5:16 AM CST 6:05 PM CST
Moon 4:00 PM CST 5:57 AM CST
Length of Visible Light 10h 36m
Length of Day
9h 37m
Waxing Gibbous, 99% of the Moon is Illuminated
Nov 27
Waxing Gibbous
Nov 28
Full
Dec 6
Last Quarter
Dec 13
New
Dec 19
First Quarter

Hourly Weather History & Observations

Time (CST) Temp. Windchill Dew Point Humidity Pressure Visibility Wind Dir Wind Speed Gust Speed Precip Events Conditions
12:53 AM 27.0 °F 18.7 °F 21.9 °F 81% 30.36 in 8.0 mi North 8.1 mph - N/A   Clear
1:53 AM 26.1 °F 17.6 °F 21.9 °F 84% 30.37 in 8.0 mi North 8.1 mph - N/A   Clear
2:53 AM 25.0 °F 15.5 °F 21.0 °F 85% 30.38 in 10.0 mi North 9.2 mph - N/A   Clear
3:53 AM 24.1 °F 14.4 °F 19.9 °F 84% 30.36 in 9.0 mi North 9.2 mph - N/A   Clear
4:53 AM 23.0 °F 12.4 °F 18.0 °F 81% 30.37 in 10.0 mi North 10.4 mph - N/A   Clear
6:53 AM 19.0 °F 12.3 °F 14.0 °F 81% 30.42 in 10.0 mi NW 4.6 mph - N/A   Clear
7:53 AM 21.9 °F 12.5 °F 17.1 °F 82% 30.44 in 10.0 mi NNW 8.1 mph - N/A   Clear
8:53 AM 26.1 °F 16.8 °F 17.1 °F 69% 30.45 in 10.0 mi North 9.2 mph - N/A   Clear
9:53 AM 30.9 °F 26.2 °F 17.1 °F 57% 30.45 in 10.0 mi NNE 4.6 mph - N/A   Clear
10:53 AM 34.0 °F 29.8 °F 19.9 °F 56% 30.44 in 10.0 mi North 4.6 mph - N/A   Clear
11:53 AM 34.0 °F 29.8 °F 19.0 °F 54% 30.40 in 10.0 mi NW 4.6 mph - N/A   Clear
12:53 PM 37.0 °F 31.6 °F 18.0 °F 46% 30.38 in 10.0 mi WSW 6.9 mph - N/A   Clear
1:53 PM 37.0 °F 31.6 °F 16.0 °F 42% 30.35 in 10.0 mi WSW 6.9 mph - N/A   Clear
2:53 PM 37.0 °F 32.4 °F 18.0 °F 46% 30.34 in 10.0 mi WSW 5.8 mph - N/A   Clear
3:53 PM 36.0 °F 30.3 °F 17.1 °F 46% 30.34 in 10.0 mi WSW 6.9 mph - N/A   Clear
4:53 PM 28.9 °F 22.8 °F 15.1 °F 56% 30.34 in 10.0 mi WSW 5.8 mph - N/A   Clear
5:53 PM 27.0 °F 23.0 °F 17.1 °F 66% 30.34 in 10.0 mi SW 3.5 mph - N/A   Clear
6:53 PM 27.0 °F 20.5 °F 17.1 °F 66% 30.35 in 10.0 mi SW 5.8 mph - N/A   Clear
7:53 PM 27.0 °F 19.5 °F 18.0 °F 69% 30.35 in 10.0 mi SSW 6.9 mph - N/A   Clear
8:53 PM 28.9 °F 22.8 °F 19.0 °F 67% 30.35 in 10.0 mi SW 5.8 mph - N/A   Clear
9:53 PM 28.9 °F 22.8 °F 19.9 °F 69% 30.35 in 10.0 mi WSW 5.8 mph - N/A   Mostly Cloudy
10:53 PM 30.0 °F 23.2 °F 21.0 °F 69% 30.34 in 10.0 mi SW 6.9 mph - N/A   Mostly Cloudy
11:53 PM 30.0 °F 22.4 °F 21.9 °F 72% 30.34 in 10.0 mi SW 8.1 mph - N/A   Clear